Marietta, GA

1:28 PM EDT on September 27, 2016 (GMT -0400)
Dobbins Air Force Base

Weather History for KMGE - March, 2013

Change the Weather History Date:

Thursday, March 21, 2013

  Actual Average Record
Temperature  
Mean Temperature 38 °F -  
Max Temperature 48 °F 62 °F 78 °F (2011)
Min Temperature 29 °F 42 °F 29 °F (2013)
Degree Days  
Heating Degree Days 26    
Moisture  
Dew Point 15 °F    
Average Humidity 42    
Maximum Humidity 80    
Minimum Humidity 20    
Precipitation  
Precipitation 0.00 in - - ()
Sea Level Pressure  
Sea Level Pressure 29.96 in    
Wind  
Wind Speed 10 mph (NW)    
Max Wind Speed 20 mph    
Max Gust Speed 28 mph    
Visibility 10 miles    
Events      
Averages and records for this station are not official NWS values.
T = Trace of Precipitation, MM = Missing Value Source: NWS Daily Summary

Daily Weather History Graph

Daily Weather History Graph

Search for Another Location

Airport or City:

Trip Planner

Search our weather history database for the weather conditions in past years. The results will help you decide how hot, cold, wet, or windy it might be!

Date:

Astronomy

Mar. 21, 2013 Rise Set
Actual Time 7:40 AM EDT 7:50 PM EDT
Civil Twilight 7:15 AM EDT 8:15 PM EDT
Nautical Twilight 6:46 AM EDT 8:44 PM EDT
Astronomical Twilight 6:16 AM EDT 9:14 PM EDT
Moon 2:32 PM EDT (3/21) 3:47 AM EDT (3/21)
Length of Visible Light 13h 00m
Length of Day
12h 10m
Waxing Gibbous, 68% of the Moon is Illuminated
Mar 21
Waxing Gibbous
Mar 27
Full
Apr 3
Last Quarter
Apr 10
New
Apr 18
First Quarter

Hourly Weather History & Observations

Time (EDT) Temp. Windchill Dew Point Humidity Pressure Visibility Wind Dir Wind Speed Gust Speed Precip Events Conditions
12:58 AM 41.9 °F 36.3 °F 29.3 °F 61% 29.95 in 10.0 mi NW 9.2 mph 16.1 mph N/A   Clear
1:58 AM 39.7 °F 34.3 °F 28.9 °F 65% 29.95 in 10.0 mi NW 8.1 mph - N/A   Clear
2:58 AM 37.9 °F 32.1 °F 28.8 °F 70% 29.94 in 10.0 mi NW 8.1 mph - N/A   Clear
3:58 AM 36.5 °F 29.7 °F 28.0 °F 71% 29.94 in 10.0 mi NNW 9.2 mph - N/A   Clear
4:58 AM 35.2 °F 28.8 °F 27.5 °F 73% 29.93 in 10.0 mi NW 8.1 mph - N/A   Clear
5:55 AM 32.0 °F 24.8 °F 26.6 °F 80% 29.93 in 10.0 mi NNW 8.1 mph - N/A   Clear
6:58 AM 31.5 °F 21.8 °F 21.2 °F 66% 29.96 in 10.0 mi NNW 12.7 mph 17.3 mph N/A   Partly Cloudy
7:58 AM 29.7 °F 20.7 °F 16.3 °F 58% 29.96 in 10.0 mi NW 10.4 mph 19.6 mph N/A   Scattered Clouds
8:58 AM 30.6 °F 20.7 °F 12.2 °F 47% 29.99 in 10.0 mi NW 12.7 mph 26.5 mph N/A   Scattered Clouds
9:55 AM 32.7 °F 22.1 °F 8.6 °F 37% 30.00 in 10.0 mi NW 16.1 mph 27.6 mph N/A   Mostly Cloudy
10:55 AM 35.6 °F 25.5 °F 6.8 °F 30% 30.00 in 10.0 mi NW 17.3 mph 24.2 mph N/A   Mostly Cloudy
11:55 AM 37.8 °F 29.0 °F 8.2 °F 29% 30.01 in 10.0 mi NW 15.0 mph 20.7 mph N/A   Mostly Cloudy
12:55 PM 41.2 °F 35.0 °F 7.5 °F 25% 30.00 in 10.0 mi NNW 10.4 mph 19.6 mph N/A   Mostly Cloudy
1:57 PM 43.7 °F 36.9 °F 9.0 °F 24% 29.98 in 10.0 mi WNW 13.8 mph 20.7 mph N/A   Mostly Cloudy
2:55 PM 45.3 °F 39.3 °F 7.7 °F 22% 29.96 in 10.0 mi NW 12.7 mph - N/A   Mostly Cloudy
3:56 PM 48.2 °F - 8.6 °F 20% 29.94 in 10.0 mi WNW 19.6 mph 26.5 mph N/A   Mostly Cloudy
4:55 PM 48.4 °F - 8.2 °F 20% 29.93 in 10.0 mi WNW 15.0 mph 20.7 mph N/A   Mostly Cloudy
5:58 PM 47.8 °F - 9.9 °F 22% 29.93 in 10.0 mi NNW 11.5 mph 17.3 mph N/A   Mostly Cloudy
6:58 PM 47.1 °F - 10.2 °F 22% 29.93 in 10.0 mi WNW 8.1 mph - N/A   Mostly Cloudy
7:58 PM 43.5 °F 40.9 °F 10.4 °F 26% 29.95 in 10.0 mi NW 4.6 mph - N/A   Mostly Cloudy
8:58 PM 41.9 °F - 13.3 °F 31% 29.96 in 10.0 mi NW 2.3 mph - N/A   Mostly Cloudy
9:58 PM 41.2 °F 37.3 °F 14.0 °F 33% 29.95 in 10.0 mi NW 5.8 mph - N/A   Mostly Cloudy
10:58 PM 39.4 °F 36.1 °F 15.8 °F 38% 29.99 in 10.0 mi West 4.6 mph - N/A   Mostly Cloudy
11:58 PM 39.9 °F 35.8 °F 14.0 °F 35% 29.97 in 10.0 mi WNW 5.8 mph - N/A   Clear